FENGYUN 1C DEB

Satellite information

Favourite Embed

Satellite Type and Status

DEBRISIN ORBIT

Key statistics

Satellite FENGYUN 1C DEB at a glance.

Uptime

9714

Days in orbit

Revolutions

≈ 14.0

Per day

Orbit

SSO

Sun Synchronous Orbit

Inclination

98.7

Latest

Satellite identification and parameters

Extended collection of information and parameters for FENGYUN 1C DEB.

Object identification

Identified? True

Debris? True

Object name: FENGYUN 1C DEB

International designator: 1999-025CSK

Object number (NORAD): 32141

Object ID (CCSDS): 32141

Country: PEOPLES REPUBLIC OF CHINA (PRC)

Current information (Y/N): Y

RCS size: SMALL

Orbital parameters

Period: 102.601 minutes

Inclination: 98.7436 deg

SMA: 7259.831 km

Apoapsis: 934.815 km

Periapsis: 828.578 km

RAAN: 328.1999 deg

Eccentricy: 0.00731678

Argument of periapsis: 269.2169 deg

Mean anomaly: 90.0615 deg

Mean motion: 14.03501767 rev/day

Mean motion (dot): 0.00000866 rev/day2

B* drag term: 0.00056632309 1/REarth

Two-line elements (TLE)

Creation date: Nov. 22, 2025, 6:56 p.m.

Reference frame: TEME

Reference center: EARTH

Epoch: Nov. 20, 2025, 11:04 p.m. UTC

TLE line 0: 0 FENGYUN 1C DEB

TLE line 1: 1 32141U 99025CSK 25324.96164419 .00000866 00000-0 56632-3 0 9997

TLE line 2: 2 32141 98.7436 328.1999 0073168 269.2169 90.0615 14.03501767946386

Live tracking on map

Real-time ground track for satellite FENGYUN 1C DEB.

In-orbit conjunctions

A list of the most updated potential collisions computed for object FENGYUN 1C DEB.

Target Orbit TCA Probability of collision Miss distance Type
METEOR 1-17 DEB LEO 2025-11-13 23:01:32 0.0001497288 112.0 (m) DEBRIS
EXPLORER 20 LEO 2024-12-01 00:38:23 0.0002640965 395.0 (m) PAYLOAD
DMSP 5D-2 F13 DEB SSO 2024-11-06 01:28:53 0.0001017046 126.0 (m) DEBRIS

Associated space launch

Chinese polar orbiting meteorological satellite

FENGYUN 1C DEB was lifted into orbit during the mission ‘Long March 4B | Feng Yun 1C’, on board a Long March 4B space rocket.

The launch took place on May 10, 1999, 1:33 a.m. from Launch Complex 7.

For more information about the launch, click the button.

Launch to space Long March 4B | Feng Yun 1C
Long March 4B | Feng Yun 1C

Agency: N/A

Status: Launch Successful

Launch date: May 10, 1999, 1:33 a.m. UTC

Rocket: Long March 4B

Launch pad: Launch Complex 7

Location: Taiyuan Satellite Launch Center, People's Republic of China

...

Latest news about this satellite

There are no fresh news available about this satellite. Check back as we update our databases every day.


Newsletter sign-up

Weekly statistics, charts and insights to help you stay on top of the space industry.